Regional Weather Roundup
Issued by NWS Northern Indiana

Home | Current Version | Previous Version | Graphics & Text | Print | Product List | Glossary On
Versions: 1 2 3 4 5 6 7 8 9 10 11 12 13 14 15 16 17 18 19 20 21 22 23 24 25 26 27 28 29 30 31 32 33 34 35 36 37 38 39 40 41 42 43 44 45 46 47 48 49 50
000
ASUS43 KIWX 042300
RWRIWX

KIWX WEATHER ROUNDUP
NATIONAL WEATHER SERVICE NORTHERN INDIANA
700 PM EDT WED MAY 04 2016

NOTE: "FAIR" INDICATES FEW OR NO CLOUDS BELOW 12,000 FEET WITH NO
SIGNIFICANT WEATHER AND/OR OBSTRUCTIONS TO VISIBILITY.

* THESE STATIONS ARE NOT UNDER NWS QUALITY CONTROL. THEY ALSO MAY NOT
  REPORT WEATHER SUCH AS PRECIPITATION OR FOG.

INZ001>027-050000-
NORTHERN INDIANA

CITY           SKY/WX    TMP DP  RH WIND       PRES   REMARKS
GARY*          CLOUDY    46  43  87 N12G23    29.84R
SOUTH BEND     LGT RAIN  37  35  92 NW18G30   29.77R FOG
ELKHART*       LGT RAIN  39  39 100 NW15G22   29.74S
GOSHEN         LGT RAIN  39  35  86 NW17G29   29.73R
ANGOLA*        CLOUDY    41  34  75 NW7       29.67S
FORT WAYNE     PTSUNNY   45  36  70 NW16G28   29.71R
PERU/GRISSOM   CLOUDY    46  36  67 NW15      29.76R

$$
INZ028>050-050000-
CENTRAL INDIANA

CITY           SKY/WX    TMP DP  RH WIND       PRES   REMARKS
LAFAYETTE      CLOUDY    49  38  65 N13       29.80R
KOKOMO*        CLOUDY    46  34  61 NW23G29   29.77R
MUNCIE*        CLOUDY    49  37  63 NW18      29.74R
INDIANAPOLIS   PTSUNNY   51  37  58 NW16G22   29.76R

$$
MIZ043>046-050>051-056>058-064>065-071>073-077>080-050000-
SOUTHWEST LOWER MICHIGAN

CITY           SKY/WX    TMP DP  RH WIND       PRES   REMARKS
BATTLE CREEK   LGT RAIN  42  39  89 NW13G22   29.65S FOG
BENTON HARBOR  LGT RAIN  40  36  86 NW9G29    29.76S FOG
COLDWATER*     CLOUDY    41  38  91 W12       29.66S FOG
HILLSDALE*     CLOUDY    43  39  86 NW12      29.64R FOG
HOLLAND        LGT RAIN N/A N/A N/A NW9G23    29.73R
GRAND RAPIDS   CLOUDY    44  40  85 N15G29    29.68R
KALAMAZOO      LGT RAIN  41  38  89 NW10      29.68S FOG
STURGIS*       FLURRIES  38  37  92 NW12G17   29.68S
THREE RIVERS*  RAIN      40  37  87 NW14      29.70S

$$
OHZ001>008-015>018-024>025-050000-
NORTHWEST OHIO

CITY           SKY/WX    TMP DP  RH WIND       PRES   REMARKS
DEFIANCE       CLOUDY    47  38  71 W8G18     29.68R
FINDLAY        CLOUDY    49  40  71 W12       29.66R
TOLEDO EXPRESS CLOUDY    48  40  73 W14       29.65R
TOLEDO METCALF CLOUDY    51  40  65 W9        29.65R
LIMA           CLOUDY    47  41  80 W14       29.68R

$$
AND FOR LAKE MICHIGAN COASTAL AND OPEN LAKE BUOY OBSERVATIONS

STATION/POSITION TEMP    WIND        PRES    VSBY  WAVE
                 AIR SEA DIR/SP/G                  HT/PER
                 (F)     (DEG/KT/KT) (MB)    (MI)  (FT/S)
CALUMET HARBOR    44                 1009.6R
MICHIGAN CITY     43     340/ 22/ 24   N/A
BURNS HARBOR      44     360/ 14/ 21 1009.8R
SAINT JOSEPH      41     330/ 30/ 37 1008.5R
SOUTH LAKE BUOY   42 40   10/ 23/ 29 1008.1          8/ 8
4 MI NW BRIDGMAN  42 47                N/A          10/ 7

$$
&&




USA.gov is the U.S. government's official web portal to all federal, state and local government web resources and services.